GW2584 Weather Reports


time (UTC)temp
F
wind
direction
speed
knots
gust
knots
rain 1hr
in
rain 24hr
in
rain mn
in
humidity
%
barometer
mb
20260902070119 66 0 0.0 3.5 0.00 0.00 0.00 39 1022.9
20260902064610 66 0 0.0 4.3 0.00 0.01 0.00 39 1023.1
20260902063104 65 236 0.9 4.3 0.00 0.01 0.00 40 1023.0
20260902061610 65 0 0.0 4.3 0.00 0.01 0.00 41 1023.0
20260902060111 64 195 1.7 4.3 0.00 0.01 0.00 42 1023.2
20260902054604 63 0 0.0 4.3 0.00 0.01 0.01 42 1023.4
20260902053126 64 0 0.0 2.6 0.00 0.01 0.01 40 1023.3
20260902051604 64 0 0.0 0.9 0.00 0.01 0.01 38 1023.1
20260902050121 65 210 1.7 6.1 0.00 0.01 0.01 37 1023.1
20260902044611 64 236 0.9 2.6 0.00 0.01 0.01 39 1023.5
20260902043107 65 0 0.0 2.6 0.00 0.01 0.01 38 1023.6
20260902041618 65 0 0.0 2.6 0.00 0.01 0.01 38 1023.7
20260902040105 66 0 0.0 0.9 0.00 0.01 0.01 36 1023.7
20260902034605 66 0 0.0 2.6 0.00 0.02 0.01 36 1023.7
20260902033110 67 0 0.0 2.6 0.00 0.02 0.01 35 1023.7
20260902031618 66 0 0.0 1.7 0.00 0.02 0.01 36 1023.7
20260902030112 67 0 0.0 0.0 0.00 0.02 0.01 34 1023.7
20260902024603 68 0 0.0 1.7 0.00 0.03 0.01 33 1023.3
20260902023103 69 213 0.9 3.5 0.00 0.03 0.01 32 1022.9
20260902021605 70 0 0.0 2.6 0.00 0.03 0.01 30 1022.8
20260902020114 70 0 0.0 0.9 0.00 0.03 0.01 31 1022.7
20260902014602 71 0 0.0 0.0 0.00 0.03 0.01 29 1022.6
20260902013101 72 0 0.0 0.9 0.00 0.03 0.01 28 1022.5
20260902011603 73 0 0.0 1.7 0.00 0.03 0.01 27 1022.4
20260902010114 74 0 0.0 2.6 0.00 0.03 0.01 26 1022.3
20260902004607 75 0 0.0 1.7 0.00 0.03 0.01 25 1022.3
20260902003105 76 251 0.0 4.3 0.00 0.03 0.01 24 1022.4
20260902001635 76 189 0.0 3.5 0.00 0.03 0.01 24 1022.4
20260902000104 77 278 0.9 7.0 0.00 0.03 0.01 23 1022.3
20260901234600 78 86 0.9 8.7 0.00 0.03 0.01 22 1022.1
20260901233106 79 310 2.6 7.0 0.00 0.03 0.01 21 1022.2
20260901231602 78 195 0.9 7.0 0.00 0.03 0.01 22 1022.1
20260901230104 78 329 2.6 7.8 0.00 0.03 0.01 23 1022.1
20260901224619 78 218 3.5 13.0 0.00 0.03 0.01 24 1022.2
20260901223102 78 205 4.3 14.8 0.00 0.03 0.01 24 1022.1
20260901221604 80 243 2.6 8.7 0.00 0.03 0.01 23 1022.1
20260901220104 79 150 1.7 5.2 0.00 0.03 0.01 23 1022.3
20260901214605 77 283 0.9 10.4 0.00 0.03 0.01 24 1022.4
20260901213125 77 0 2.6 8.7 0.00 0.03 0.01 25 1022.5
20260901211605 77 165 3.5 7.8 0.00 0.03 0.01 24 1022.8
20260901210123 79 79 4.3 10.4 0.00 0.03 0.01 23 1022.9
20260901204608 80 218 2.6 10.4 0.00 0.03 0.01 22 1023.1
20260901203106 80 129 1.7 6.1 0.00 0.03 0.01 24 1023.4
20260901201603 79 224 2.6 8.7 0.00 0.03 0.01 26 1023.2
20260901200115 76 210 2.6 13.9 0.00 0.03 0.01 28 1023.3
20260901194605 77 354 3.5 11.3 0.00 0.03 0.01 27 1023.3
20260901193106 79 239 3.5 9.6 0.00 0.03 0.01 26 1023.4
20260901191602 78 269 2.6 14.8 0.00 0.03 0.01 26 1023.5
20260901190109 77 226 4.3 8.7 0.00 0.03 0.01 28 1023.3
20260901184608 77 231 2.6 12.2 0.00 0.03 0.01 29 1023.8
20260901183110 76 243 3.5 12.2 0.00 0.03 0.01 30 1023.8
20260901181603 76 201 5.2 15.6 0.00 0.03 0.01 29 1023.9
20260901180104 76 153 5.2 11.3 0.00 0.03 0.01 29 1024.0
20260901174603 74 217 0.9 11.3 0.00 0.03 0.01 32 1024.0
20260901173102 74 235 3.5 13.9 0.00 0.03 0.01 32 1024.2
20260901171606 73 200 4.3 11.3 0.00 0.03 0.01 33 1024.4
20260901170108 72 231 5.2 13.0 0.00 0.03 0.01 33 1024.5
20260901164612 72 222 3.5 10.4 0.00 0.03 0.01 34 1024.4
20260901163110 72 202 3.5 13.9 0.00 0.03 0.01 36 1024.1
20260901161626 71 216 4.3 14.8 0.00 0.03 0.01 39 1023.9
20260901160103 69 210 5.2 13.0 0.00 0.03 0.01 42 1024.1
20260901154619 68 147 4.3 11.3 0.00 0.03 0.01 44 1024.4
20260901153110 66 243 3.5 10.4 0.00 0.03 0.01 48 1024.6
20260901151612 65 234 3.5 7.8 0.00 0.03 0.01 49 1024.6
20260901150119 64 210 2.6 7.8 0.00 0.03 0.01 52 1024.6
20260901144609 63 166 1.7 10.4 0.00 0.03 0.01 53 1024.5
20260901143108 63 121 2.6 8.7 0.00 0.03 0.01 53 1024.4
20260901141605 63 216 1.7 8.7 0.00 0.03 0.01 52 1024.3
20260901134601 61 229 1.7 6.1 0.00 0.03 0.01 58 1024.2
20260901133106 61 283 0.9 9.6 0.00 0.03 0.01 58 1023.9
20260901131604 61 229 3.5 8.7 0.00 0.03 0.01 59 1023.7
20260901130105 60 180 4.3 10.4 0.00 0.03 0.01 60 1023.5
20260901124606 60 127 2.6 6.1 0.00 0.03 0.01 62 1023.3
20260901123105 58 184 1.7 6.1 0.00 0.03 0.01 65 1022.8
20260901121613 58 0 0.0 2.6 0.00 0.03 0.01 68 1022.7
20260901120114 57 0 0.0 1.7 0.00 0.03 0.01 71 1022.8
20260901114609 57 217 1.7 2.6 0.00 0.03 0.01 71 1022.8
20260901113104 57 0 0.0 1.7 0.00 0.03 0.01 72 1022.8
20260901111606 57 0 0.9 1.7 0.00 0.03 0.01 72 1022.8
20260901104603 58 222 0.9 3.5 0.00 0.03 0.01 72 1023.0
20260901103107 57 239 0.9 2.6 0.00 0.03 0.01 74 1022.9
20260901101604 58 0 0.0 1.7 0.00 0.03 0.01 73 1023.2
20260901100106 58 220 0.9 3.5 0.00 0.03 0.01 72 1023.5
20260901094604 58 0 0.0 1.7 0.00 0.03 0.01 74 1023.6
20260901093105 58 0 0.0 2.6 0.00 0.03 0.01 73 1023.8
20260901091615 58 0 0.0 0.9 0.00 0.03 0.01 73 1024.0
20260901090107 57 0 0.0 1.7 0.00 0.03 0.01 74 1024.0
20260901084609 57 0 0.0 0.9 0.00 0.03 0.01 74 1024.0
20260901083107 57 0 0.0 0.0 0.00 0.03 0.01 75 1024.1
20260901081608 57 0 0.0 0.0 0.00 0.03 0.01 75 1024.6
20260901080108 58 0 0.0 0.9 0.00 0.03 0.01 74 1024.6
20260901074605 58 0 0.0 0.9 0.00 0.03 0.01 73 1024.8
20260901073110 58 0 0.0 0.9 0.00 0.03 0.01 74 1025.0
20260901071607 59 0 0.0 0.9 0.00 0.03 0.01 73 1024.8